Wind_Speed
37 38 35 35 38 39 38 37 35 35 35 36 36 36 36 35 34 32 32 34 36 38 40 42 41 48 45 42 40 41 40 42 44 45 45 44 41 39 36 37 37 38 37 39
34 32 31 31 31 31 31 32 33 33 34 36 36 35 38 35 35 38 40 38 39 41 42 43 42 42 51 46 43 43 43 42 44 44 46 49 45 41 38 37 38 38 38 39
30 28 25 24 25 25 27 29 30 33 35 37 39 40 42 43 43 43 44 46 45 44 44 45 45 44 45 51 46 43 45 43 43 43 45 48 47 41 41 40 39 39 40 40
26 21 21 21 21 24 26 29 32 35 39 42 43 49 46 49 51 51 51 50 50 49 49 47 47 47 47 49 53 49 46 47 44 42 43 45 46 46 42 42 42 40 40 40
25 21 20 20 23 26 29 31 35 39 43 47 48 57 49 55 57 60 61 61 58 56 56 55 51 51 49 49 52 54 48 49 49 42 40 45 45 42 41 40 42 40 40 40
23 21 21 23 26 28 30 35 38 43 48 52 55 59 55 59 61 64 67 67 65 65 63 62 59 54 53 51 51 53 54 49 48 44 42 45 42 40 39 42 44 39 38 40
23 22 23 25 27 30 34 35 40 44 47 50 54 60 56 46 48 52 55 62 66 65 63 62 61 57 56 53 51 51 53 50 49 45 43 44 39 41 42 42 44 39 39 39
24 24 25 25 29 30 32 34 34 42 46 49 51 54 49 48 44 48 40 44 45 52 61 62 61 59 54 55 52 53 52 51 48 45 43 44 40 42 43 41 41 40 40 38
25 26 25 26 26 28 29 34 37 41 42 47 52 55 57 56 54 58 57 59 47 45 43 56 60 59 56 53 52 52 52 50 47 45 45 43 42 42 43 43 41 41 39 39
25 24 23 22 23 27 33 34 38 42 49 51 55 56 59 48 49 48 51 52 48 44 44 40 54 58 53 52 51 52 53 51 48 47 47 45 44 44 43 43 41 40 39 41
23 22 18 20 24 29 31 33 37 42 44 48 53 53 51 49 47 44 39 37 36 33 42 40 36 56 53 51 51 50 52 51 47 46 47 47 46 45 43 43 42 41 40 41
20 18 18 21 24 28 31 32 36 40 39 46 50 49 40 37 34 31 31 32 30 29 39 39 36 53 53 51 50 47 47 46 45 45 46 47 46 45 42 43 41 41 40 42
18 18 16 19 24 23 25 28 33 41 45 42 47 43 38 40 30 30 29 28 34 35 39 41 41 53 51 50 48 43 43 41 43 44 45 44 45 44 43 43 41 40 41 42
18 15 18 16 20 22 22 22 31 37 44 40 39 44 24 35 31 30 32 34 36 37 37 37 49 48 46 46 43 41 39 40 41 43 44 44 43 40 41 40 39 39 43 41
16 16 18 19 18 22 22 27 31 34 34 41 37 38 35 30 25 18 23 28 35 32 36 28 45 43 43 39 37 40 37 39 42 42 44 41 39 38 38 38 38 40 41 42
16 16 14 14 13 15 18 25 26 23 27 35 33 29 29 27 23 19 16 13 17 24 26 21 38 41 40 31 33 35 36 38 40 41 38 37 35 35 37 38 38 40 40 39
14 11 8 8 8 11 15 16 15 20 24 26 26 27 29 30 23 21 24 9 17 16 12 15 35 35 33 29 30 31 33 34 34 35 32 30 32 34 36 32 32 42 42 42
12 9 5 5 5 6 10 10 13 17 21 24 26 22 26 23 20 19 11 5 8 15 16 28 30 29 28 27 28 30 30 30 29 27 31 36 34 33 44 40 41 40 36 37
12 8 3 2 3 3 5 11 12 17 18 19 22 24 26 21 22 15 20 17 19 23 25 26 26 25 22 22 21 22 21 20 22 23 26 30 32 37 42 39 31 30 34 37
12 7 3 3 1 4 7 7 11 16 17 18 18 14 18 17 17 17 21 21 21 20 21 21 19 17 17 16 16 17 17 15 20 30 32 31 37 40 33 31 32 32 33 38
12 8 5 3 1 5 5 7 9 11 13 17 17 18 13 10 8 15 15 17 17 18 17 16 16 17 16 16 15 27 29 23 35 30 29 32 37 29 24 27 29 34 36 38
14 10 6 1 5 7 12 11 9 9 11 10 13 15 17 11 17 11 11 6 6 13 17 21 22 22 22 23 27 28 28 29 32 27 19 16 20 23 26 29 31 35 37 39
16 13 9 4 3 7 11 11 10 11 10 11 6 7 11 11 13 11 11 11 11 13 13 11 11 11 14 16 15 13 12 11 11 13 16 19 22 25 27 31 33 35 37 40
19 16 13 9 6 7 11 11 10 10 11 10 10 6 6 8 8 9 9 8 8 10 8 8 8 7 8 10 11 10 10 9 11 15 18 20 23 27 29 30 33 36 38 41
19 18 17 16 14 13 13 13 11 10 8 8 6 6 5 3 3 4 5 5 4 3 2 2 5 4 2 2 5 7 10 12 13 16 19 23 25 27 29 32 34 37 39 39
23 24 20 17 16 17 17 15 13 10 9 7 9 4 5 6 6 5 3 3 3 3 3 1 0 2 3 5 6 8 11 13 17 20 22 24 26 29 31 34 35 36 35 38
Wind_Direction
229 228 228 229 230 231 234 236 239 240 241 239 240 240 243 244 247 251 257 258 259 262 263 261 256 245 247 246 251 255 258 257 256 255 255 257 261 263 263 265 267 268 270 270
226 225 225 227 230 233 235 236 239 240 243 243 242 245 250 250 250 252 257 263 265 262 261 263 263 252 245 246 247 248 252 254 256 256 256 257 258 262 264 264 268 273 271 271
218 218 219 221 225 229 235 238 244 250 253 254 255 250 252 256 260 264 267 268 266 263 259 258 260 258 248 244 243 247 250 251 253 255 255 257 260 261 263 268 271 270 270 271
213 214 222 225 232 241 245 251 256 261 264 266 264 261 259 264 263 260 262 267 267 264 261 255 255 257 255 247 244 243 245 249 249 251 251 255 257 256 260 265 270 270 269 273
220 222 229 237 245 250 257 263 268 271 274 275 275 275 264 270 268 269 268 268 264 260 261 259 254 253 254 249 246 242 241 243 247 246 247 251 255 257 256 262 267 270 268 269
230 235 240 246 253 260 266 271 274 275 276 277 278 280 273 278 278 274 271 267 262 259 256 255 254 251 252 252 247 244 241 241 245 245 243 248 255 257 255 258 263 269 270 269
236 240 247 255 262 267 272 275 279 282 282 281 282 283 283 282 284 279 274 266 262 258 252 249 250 247 244 247 248 244 241 238 243 245 241 247 253 256 256 258 263 268 268 271
235 244 252 259 265 271 276 280 284 285 290 288 288 286 286 283 273 270 270 269 270 260 254 249 245 244 241 241 242 240 239 236 237 244 241 245 250 254 255 259 263 267 267 268
240 249 256 262 269 273 274 274 280 285 286 284 288 287 288 290 286 274 266 263 261 265 267 248 243 242 239 236 238 237 234 237 235 239 241 245 248 252 254 256 259 265 268 269
243 248 256 264 267 269 272 281 287 290 290 291 294 298 301 300 290 275 260 256 261 259 269 270 243 238 235 233 233 232 230 234 235 236 239 243 245 248 251 256 260 265 265 268
243 251 258 261 261 270 277 287 289 288 293 297 298 306 307 302 282 273 270 264 260 255 257 265 255 233 230 227 229 230 227 231 235 237 239 243 244 244 249 253 259 265 267 269
246 250 256 249 266 278 290 288 286 292 297 294 300 305 306 294 280 268 265 264 250 244 251 254 252 224 222 221 225 226 225 228 232 234 237 241 244 245 248 254 259 266 270 272
245 251 239 262 275 283 288 296 296 295 293 296 293 315 306 311 275 263 261 251 245 238 245 250 236 215 213 215 219 222 220 223 228 230 236 241 244 245 248 254 260 266 271 275
250 239 254 273 282 288 292 292 292 292 291 296 307 306 309 325 298 276 262 253 245 245 242 242 219 209 203 209 214 215 215 221 225 230 235 239 243 245 250 257 264 271 274 275
241 244 261 276 268 287 303 298 294 302 299 295 311 307 311 323 320 310 287 275 255 243 235 245 220 199 195 202 207 209 211 217 223 229 235 237 240 248 255 261 267 269 270 277
237 254 274 275 285 300 295 298 308 313 312 323 320 310 306 312 318 309 296 284 252 240 239 235 210 190 192 193 198 202 209 215 222 228 233 240 248 254 256 261 265 271 274 273
242 258 248 264 294 292 298 311 326 346 343 344 345 327 312 307 310 312 315 256 241 228 194 203 186 182 187 188 193 201 211 215 220 227 236 243 250 258 271 265 271 268 270 280
236 219 220 251 297 303 343 354 360 357 359 351 2 357 2 350 330 324 342 61 189 156 139 171 168 173 182 189 197 204 212 218 223 230 234 233 241 250 265 264 267 271 281 283
212 207 242 218 343 11 29 34 23 10 3 4 5 351 2 23 48 56 73 93 115 124 142 150 159 170 181 192 199 206 213 217 219 226 246 242 265 265 260 269 276 283 280 283
209 221 194 208 264 19 21 20 9 7 15 15 16 14 7 72 51 88 75 102 109 123 142 149 156 164 169 171 180 190 194 207 222 221 237 242 261 268 274 276 280 285 286 286
218 218 195 199 32 37 35 20 1 358 8 17 19 28 38 44 88 84 82 98 111 119 120 123 132 147 155 167 193 212 203 212 225 232 248 254 261 271 282 285 287 288 290 294
221 218 228 236 11 11 8 8 5 355 350 2 10 21 27 70 81 89 123 108 128 158 157 159 164 171 177 188 204 218 225 233 240 249 255 273 282 285 289 290 292 295 296 297
222 218 220 231 338 5 359 344 334 332 341 340 352 355 44 17 50 74 75 69 72 92 109 136 161 176 195 203 204 203 208 214 235 265 276 281 287 290 292 293 294 295 296 297
224 223 233 243 275 304 318 327 319 316 317 324 328 350 342 358 28 43 51 53 108 127 142 144 141 145 162 174 193 214 237 263 276 277 281 286 289 290 291 292 294 298 300 305
234 238 243 251 260 276 290 300 300 299 301 312 328 338 353 41 36 52 68 72 64 54 53 119 139 143 158 231 251 260 263 270 281 290 293 293 293 292 294 298 300 304 308 309
245 248 252 262 266 272 275 277 274 276 276 287 295 344 360 14 18 7 24 49 75 88 84 69 286 250 257 264 273 290 297 296 295 296 297 297 297 299 301 303 308 309 310 310
Height
5673 5678 5683 5685 5690 5693 5697 5701 5704 5706 5708 5710 5712 5715 5717 5719 5722 5724 5725 5725 5725 5725 5727 5728 5731 5734 5738 5742 5744 5745 5747 5749 5750 5752 5753 5754 5757 5759 5760 5760 5760 5760 5760 5760
5669 5675 5676 5681 5685 5689 5692 5695 5697 5699 5700 5702 5704 5709 5709 5712 5714 5714 5715 5716 5717 5717 5718 5719 5721 5724 5728 5732 5735 5736 5737 5740 5742 5744 5747 5746 5750 5753 5754 5754 5754 5754 5754 5753
5665 5670 5673 5676 5680 5684 5686 5689 5691 5692 5694 5696 5695 5700 5698 5701 5704 5704 5704 5705 5705 5706 5707 5709 5710 5713 5716 5720 5725 5728 5729 5732 5735 5737 5738 5739 5743 5746 5746 5748 5747 5747 5746 5745
5662 5667 5669 5672 5676 5678 5681 5683 5684 5685 5684 5685 5687 5685 5691 5692 5691 5693 5694 5693 5692 5693 5695 5697 5699 5701 5703 5708 5713 5717 5720 5722 5725 5727 5730 5733 5736 5737 5740 5741 5741 5740 5740 5738
5660 5662 5665 5669 5671 5673 5675 5677 5677 5675 5674 5675 5677 5668 5685 5679 5679 5678 5675 5675 5676 5678 5680 5684 5687 5690 5693 5695 5699 5706 5710 5711 5714 5719 5721 5724 5726 5729 5732 5733 5733 5734 5733 5732
5654 5658 5661 5663 5665 5667 5669 5669 5668 5665 5663 5664 5661 5654 5674 5664 5660 5657 5655 5653 5653 5657 5661 5665 5671 5678 5682 5684 5687 5693 5698 5702 5706 5710 5712 5714 5717 5722 5723 5724 5724 5725 5725 5724
5650 5653 5655 5657 5659 5661 5660 5660 5657 5654 5653 5654 5645 5640 5653 5649 5640 5639 5634 5632 5632 5636 5642 5649 5654 5660 5667 5672 5676 5682 5687 5693 5697 5701 5703 5706 5710 5713 5714 5714 5717 5718 5717 5716
5645 5649 5650 5653 5653 5653 5652 5651 5649 5644 5640 5639 5632 5631 5633 5633 5634 5624 5623 5616 5613 5617 5623 5632 5638 5644 5652 5658 5663 5669 5675 5681 5686 5692 5696 5697 5702 5703 5705 5707 5709 5709 5709 5709
5641 5643 5645 5646 5646 5646 5646 5644 5641 5636 5634 5628 5625 5622 5620 5617 5612 5609 5607 5601 5601 5603 5606 5612 5621 5630 5637 5644 5650 5657 5664 5670 5676 5681 5686 5689 5692 5694 5697 5698 5700 5701 5702 5701
5637 5639 5640 5641 5640 5639 5636 5636 5633 5629 5622 5616 5611 5607 5601 5596 5592 5585 5588 5583 5582 5590 5595 5599 5604 5613 5623 5631 5638 5644 5652 5660 5665 5670 5677 5680 5683 5686 5687 5689 5691 5693 5693 5692
5631 5634 5637 5635 5632 5630 5631 5630 5625 5618 5613 5606 5601 5598 5591 5584 5577 5574 5572 5570 5570 5573 5582 5587 5590 5598 5609 5618 5626 5632 5640 5649 5656 5662 5667 5672 5674 5677 5679 5681 5683 5684 5684 5685
5627 5629 5630 5629 5627 5626 5623 5622 5616 5611 5608 5598 5592 5584 5580 5570 5562 5561 5559 5558 5559 5562 5568 5575 5579 5584 5596 5606 5614 5622 5631 5640 5646 5653 5658 5662 5666 5669 5671 5673 5675 5676 5676 5677
5624 5624 5625 5624 5623 5620 5618 5614 5608 5602 5595 5594 5583 5579 5567 5560 5553 5550 5549 5549 5549 5551 5555 5562 5567 5573 5583 5595 5604 5614 5623 5631 5638 5644 5650 5654 5658 5661 5663 5666 5667 5668 5668 5668
5618 5619 5618 5619 5616 5613 5613 5610 5604 5597 5587 5584 5579 5563 5566 5554 5547 5543 5540 5540 5541 5542 5547 5552 5558 5564 5576 5586 5597 5607 5617 5624 5631 5637 5642 5646 5651 5654 5657 5659 5660 5660 5660 5658
5612 5613 5614 5614 5612 5609 5606 5601 5598 5592 5584 5575 5573 5561 5556 5549 5543 5538 5534 5532 5533 5537 5542 5548 5552 5560 5572 5582 5593 5603 5610 5618 5624 5631 5636 5640 5644 5648 5651 5652 5653 5653 5650 5649
5609 5611 5610 5608 5607 5605 5602 5597 5593 5589 5581 5574 5563 5558 5551 5545 5540 5534 5530 5529 5529 5533 5538 5542 5550 5559 5570 5580 5591 5599 5606 5613 5619 5625 5630 5635 5639 5642 5644 5644 5644 5644 5643 5640
5606 5607 5607 5606 5605 5602 5600 5596 5591 5585 5577 5571 5563 5555 5547 5540 5535 5531 5526 5525 5527 5531 5535 5541 5551 5561 5573 5581 5590 5597 5604 5611 5616 5622 5628 5632 5634 5635 5635 5635 5636 5635 5632 5630
5603 5605 5604 5604 5603 5601 5598 5593 5589 5584 5578 5571 5565 5557 5549 5541 5536 5531 5528 5524 5529 5533 5538 5547 5557 5566 5574 5582 5589 5595 5602 5609 5616 5621 5624 5629 5628 5630 5630 5629 5627 5626 5623 5623
5602 5603 5603 5603 5601 5601 5598 5594 5590 5586 5581 5573 5567 5560 5554 5548 5542 5539 5536 5536 5536 5541 5548 5555 5563 5570 5576 5583 5590 5597 5603 5609 5614 5617 5619 5615 5621 5621 5622 5621 5619 5617 5616 5615
5600 5601 5602 5602 5601 5599 5597 5594 5591 5588 5583 5577 5573 5567 5561 5556 5551 5547 5548 5548 5550 5553 5558 5563 5568 5574 5580 5586 5592 5597 5602 5608 5610 5610 5615 5615 5617 5617 5615 5613 5612 5611 5609 5606
5598 5600 5601 5600 5599 5598 5596 5594 5592 5590 5589 5582 5577 5573 5568 5566 5562 5560 5559 5560 5561 5562 5565 5569 5573 5579 5584 5589 5592 5593 5595 5605 5604 5607 5610 5610 5611 5610 5610 5608 5606 5604 5601 5597
5597 5598 5599 5598 5596 5595 5593 5593 5593 5591 5588 5585 5582 5579 5575 5572 5571 5568 5567 5567 5567 5569 5573 5577 5580 5584 5588 5592 5595 5596 5598 5602 5605 5606 5606 5607 5606 5605 5603 5601 5598 5595 5592 5588
5596 5597 5598 5596 5595 5594 5593 5593 5592 5590 5588 5587 5585 5583 5578 5578 5576 5575 5574 5574 5575 5576 5577 5580 5582 5585 5588 5590 5594 5596 5598 5600 5601 5601 5602 5601 5600 5598 5596 5594 5591 5587 5583 5579
5592 5593 5595 5594 5594 5594 5593 5592 5591 5590 5588 5587 5585 5584 5582 5580 5579 5579 5579 5579 5580 5580 5581 5582 5584 5587 5589 5591 5593 5595 5596 5596 5596 5597 5597 5596 5594 5592 5589 5586 5583 5579 5574 5569
5590 5591 5592 5592 5592 5592 5592 5591 5591 5589 5588 5587 5586 5584 5583 5583 5582 5581 5581 5581 5582 5582 5583 5584 5585 5587 5589 5591 5592 5593 5593 5594 5594 5593 5592 5590 5587 5584 5582 5578 5574 5570 5564 5559
5585 5586 5588 5588 5589 5589 5589 5589 5589 5589 5588 5587 5586 5584 5584 5583 5582 5582 5581 5582 5582 5583 5585 5585 5586 5587 5588 5589 5590 5590 5590 5590 5589 5587 5585 5583 5580 5577 5573 5569 5565 5560 5556 5551